Weather History for Gulkana, AK

Change the Weather History Date:

Monday, June 9, 2014

  Actual Average Record
Temperature  
Mean Temperature 54 °F -  
Max Temperature 64 °F 62 °F 86 °F (1957)
Min Temperature 45 °F 41 °F 28 °F (1981)
Degree Days  
Heating Degree Days 10    
Growing Degree Days 4 (Base 50)    
Moisture  
Dew Point 39 °F    
Average Humidity 60    
Maximum Humidity 90    
Minimum Humidity 29    
Precipitation  
Precipitation 0.00 in - - ()
Sea Level Pressure  
Sea Level Pressure 29.88 in    
Wind  
Wind Speed 7 mph (SSE)    
Max Wind Speed 17 mph    
Max Gust Speed 28 mph    
Visibility 10 miles    
Events      
Averages and records for this station are not official NWS values.
T = Trace of Precipitation, MM = Missing Value Source: NWS Daily Summary

Daily Weather History Graph

Daily Weather History Graph

Search for Another Location

Airport:

Trip Planner

Search our weather history database for the weather conditions in past years. The results will help you decide how hot, cold, wet, or windy it might be!

Date:

Astronomy

Jun. 09, 2014 Rise Set
Actual Time 3:54 AM AKDT 11:28 PM AKDT
Civil Twilight 2:13 AM AKDT 1:08 AM AKDT
Nautical Twilight Sun does not rise Sun does not rise
Astronomical Twilight Sun does not rise Sun does not rise
Moon 6:46 PM AKDT (6/9) 2:53 AM AKDT (6/9)
Length of Visible Light 22h 55m
Length of Day
19h 34m
Waxing Gibbous, 86% of the Moon is Illuminated
Jun 9
Waxing Gibbous
Jun 12
Full
Jun 19
Last Quarter
Jun 27
New
Jul 5
First Quarter

Hourly Weather History & Observations

Time (AKDT) Temp. Windchill Dew Point Humidity Pressure Visibility Wind Dir Wind Speed Gust Speed Precip Events Conditions
12:53 AM 46.0 °F - 42.1 °F 86% 29.81 in 10.0 mi Calm Calm - N/A   Overcast
1:53 AM 46.0 °F - 41.0 °F 83% 29.82 in 10.0 mi Calm Calm - N/A   Overcast
2:53 AM 46.9 °F - 39.9 °F 77% 29.82 in 10.0 mi WSW 4.6 mph - N/A   Overcast
3:53 AM 46.9 °F - 41.0 °F 80% 29.84 in 10.0 mi SSW 3.5 mph - N/A   Overcast
4:53 AM 45.0 °F 41.8 °F 41.0 °F 86% 29.85 in 10.0 mi SSE 5.8 mph - N/A   Overcast
5:53 AM 45.0 °F 42.6 °F 41.0 °F 86% 29.88 in 10.0 mi South 4.6 mph - N/A   Overcast
7:53 AM 45.0 °F 42.6 °F 42.1 °F 90% 29.91 in 10.0 mi South 4.6 mph - N/A   Overcast
8:53 AM 46.0 °F 43.1 °F 42.1 °F 86% 29.91 in 10.0 mi South 5.8 mph - N/A   Overcast
9:53 AM 48.0 °F - 43.0 °F 83% 29.91 in 10.0 mi South 8.1 mph - N/A   Overcast
10:53 AM 51.1 °F - 42.1 °F 71% 29.91 in 10.0 mi SSE 10.4 mph - N/A   Scattered Clouds
11:53 AM 54.0 °F - 42.1 °F 64% 29.91 in 10.0 mi SE 9.2 mph - N/A   Mostly Cloudy
12:53 PM 57.0 °F - 41.0 °F 55% 29.91 in 10.0 mi SSE 10.4 mph - N/A   Overcast
1:53 PM 57.9 °F - 39.0 °F 49% 29.90 in 10.0 mi SE 13.8 mph 19.6 mph N/A   Mostly Cloudy
2:53 PM 61.0 °F - 39.0 °F 44% 29.88 in 10.0 mi SSE 12.7 mph 21.9 mph N/A   Clear
3:53 PM 62.1 °F - 37.9 °F 41% 29.88 in 10.0 mi SSE 17.3 mph 21.9 mph N/A   Clear
4:53 PM 63.0 °F - 37.0 °F 38% 29.87 in 10.0 mi SE 15.0 mph 26.5 mph N/A   Clear
5:53 PM 63.0 °F - 34.0 °F 34% 29.86 in 10.0 mi SSE 17.3 mph 27.6 mph N/A   Clear
6:53 PM 62.1 °F - 33.1 °F 34% 29.86 in 10.0 mi SE 16.1 mph 23.0 mph N/A   Partly Cloudy
7:53 PM 60.1 °F - 32.0 °F 35% 29.88 in 10.0 mi South 17.3 mph 26.5 mph N/A   Clear
8:53 PM 57.0 °F - 32.0 °F 39% 29.90 in 10.0 mi South 17.3 mph 24.2 mph N/A   Clear
9:53 PM 54.0 °F - 33.1 °F 45% 29.92 in 10.0 mi SSE 13.8 mph - N/A   Clear
10:53 PM 51.1 °F - 35.1 °F 54% 29.94 in 10.0 mi SSE 15.0 mph - N/A   Clear
11:53 PM 50.0 °F - 35.1 °F 57% 29.95 in 10.0 mi SSE 11.5 mph - N/A   Clear